Location: Walnut Hills Mobile Home Park
(34.0445°N, 117.8184°W)
Time: 03:41:08
(UTC+00:00)

SL-24 R/B - Pass Details

Date: 17 December 2025
Orbit: 501 x 978 km, 97.4° (Epoch: 21 January)

Event Time Altitude Azimuth Distance (km) Brightness Sun altitude
Rises 12:38:57 0° 15° (NNE) 3,094 7.7 -26.5°
Reaches altitude 10° 12:41:23 10° 19° (NNE) 2,094 6.8 -26.0°
Maximum altitude 12:45:50 59° 99° (E) 698 4.5 -25.1°
Drops below altitude 10° 12:49:45 10° 180° (S) 1,840 6.6 -24.3°
Sets 12:51:46 0° 184° (S) 2,683 7.4 -23.9°
